Precipitable_Water
0.74 0.73 0.73 0.72 0.71 0.70 0.70 0.71 0.71 0.71 0.70 0.70 0.68 0.67 0.66 0.65 0.64 0.64 0.64 0.63 0.63 0.62 0.62 0.61 0.60 0.60 0.59 0.58 0.57 0.56 0.56 0.56 0.56 0.56 0.56 0.56 0.57 0.58 0.58 0.58 0.57 0.57 0.58 0.59 0.62 0.62 0.62 0.62 0.64 0.67 0.71 0.70 0.71 0.73 0.76 0.82 0.90 0.94 0.98 0.99 0.96 0.99 0.99 0.95 0.84 0.81 0.88 1.08 1.16 1.24 1.35 1.43 1.38 1.43 1.40 1.45 1.45 1.47 1.46 1.44 1.42 1.43 1.44 1.44 1.45
0.72 0.72 0.72 0.71 0.70 0.70 0.70 0.71 0.70 0.70 0.68 0.68 0.66 0.66 0.64 0.63 0.62 0.62 0.60 0.61 0.61 0.59 0.58 0.59 0.58 0.57 0.56 0.54 0.54 0.54 0.53 0.53 0.53 0.53 0.52 0.52 0.53 0.55 0.55 0.55 0.55 0.55 0.56 0.56 0.58 0.60 0.61 0.61 0.62 0.65 0.70 0.71 0.73 0.75 0.77 0.78 0.83 0.86 0.90 0.94 0.95 0.95 1.03 0.96 0.91 0.86 0.77 0.93 1.07 1.22 1.29 1.38 1.33 1.44 1.40 1.39 1.44 1.46 1.41 1.40 1.43 1.44 1.40 1.44 1.46
0.72 0.71 0.70 0.69 0.69 0.69 0.70 0.69 0.68 0.67 0.65 0.64 0.62 0.61 0.61 0.61 0.61 0.59 0.59 0.58 0.58 0.57 0.55 0.55 0.54 0.53 0.52 0.51 0.50 0.49 0.49 0.49 0.49 0.48 0.48 0.49 0.49 0.50 0.53 0.53 0.53 0.53 0.53 0.54 0.55 0.58 0.58 0.59 0.61 0.64 0.67 0.68 0.70 0.72 0.75 0.75 0.78 0.81 0.84 0.90 0.90 0.93 0.99 1.02 0.97 0.90 0.91 0.89 1.03 1.08 1.18 1.28 1.29 1.33 1.42 1.44 1.45 1.48 1.39 1.37 1.37 1.40 1.41 1.41 1.42
0.69 0.68 0.68 0.67 0.68 0.67 0.66 0.65 0.64 0.63 0.61 0.61 0.60 0.60 0.60 0.59 0.59 0.57 0.56 0.55 0.53 0.53 0.53 0.51 0.50 0.48 0.46 0.45 0.44 0.43 0.42 0.41 0.41 0.41 0.41 0.41 0.41 0.43 0.45 0.47 0.48 0.49 0.50 0.51 0.52 0.53 0.54 0.55 0.57 0.60 0.62 0.63 0.65 0.67 0.70 0.73 0.74 0.77 0.80 0.84 0.88 0.89 0.94 1.00 1.00 0.95 0.94 0.88 0.95 1.05 1.13 1.17 1.24 1.32 1.38 1.44 1.45 1.45 1.44 1.35 1.38 1.36 1.37 1.40 1.44
0.68 0.68 0.67 0.66 0.65 0.64 0.62 0.62 0.60 0.60 0.59 0.59 0.58 0.58 0.57 0.56 0.55 0.53 0.51 0.49 0.48 0.47 0.46 0.46 0.43 0.41 0.40 0.38 0.37 0.36 0.36 0.35 0.34 0.34 0.35 0.35 0.35 0.35 0.37 0.38 0.40 0.41 0.43 0.44 0.46 0.48 0.50 0.52 0.54 0.57 0.59 0.59 0.60 0.62 0.64 0.66 0.70 0.72 0.75 0.80 0.82 0.86 0.89 0.92 0.96 0.99 0.94 0.88 0.88 1.00 1.13 1.18 1.27 1.31 1.36 1.33 1.39 1.43 1.45 1.43 1.36 1.35 1.36 1.37 1.42
0.69 0.68 0.67 0.65 0.64 0.63 0.62 0.61 0.60 0.59 0.59 0.58 0.57 0.55 0.54 0.51 0.49 0.48 0.46 0.43 0.43 0.42 0.41 0.39 0.38 0.36 0.35 0.35 0.34 0.33 0.32 0.32 0.31 0.30 0.30 0.31 0.32 0.32 0.33 0.33 0.34 0.36 0.37 0.38 0.40 0.41 0.43 0.46 0.50 0.53 0.55 0.56 0.57 0.58 0.60 0.61 0.64 0.67 0.69 0.73 0.78 0.81 0.82 0.85 0.90 0.93 0.95 0.92 0.91 0.89 1.02 1.08 1.17 1.28 1.35 1.38 1.34 1.32 1.35 1.40 1.42 1.40 1.36 1.34 1.38
0.69 0.67 0.66 0.64 0.62 0.62 0.61 0.60 0.59 0.57 0.56 0.55 0.54 0.51 0.48 0.46 0.44 0.42 0.41 0.40 0.38 0.36 0.36 0.35 0.34 0.33 0.33 0.33 0.32 0.31 0.30 0.30 0.29 0.28 0.28 0.28 0.29 0.29 0.29 0.30 0.31 0.32 0.34 0.35 0.37 0.38 0.40 0.42 0.43 0.47 0.50 0.53 0.55 0.55 0.56 0.58 0.59 0.61 0.65 0.67 0.70 0.73 0.76 0.80 0.84 0.85 0.88 0.90 0.90 0.92 0.94 1.05 1.14 1.18 1.35 1.41 1.40 1.36 1.29 1.29 1.30 1.36 1.37 1.34 1.32
0.66 0.64 0.62 0.61 0.60 0.61 0.60 0.58 0.56 0.54 0.52 0.50 0.48 0.46 0.43 0.41 0.40 0.39 0.38 0.36 0.34 0.33 0.32 0.32 0.32 0.32 0.31 0.31 0.31 0.30 0.28 0.27 0.27 0.26 0.26 0.27 0.27 0.27 0.27 0.27 0.27 0.29 0.30 0.32 0.33 0.35 0.37 0.38 0.40 0.43 0.46 0.48 0.50 0.53 0.55 0.54 0.56 0.57 0.61 0.64 0.66 0.67 0.70 0.75 0.79 0.81 0.83 0.85 0.87 0.88 0.94 0.97 1.06 1.20 1.33 1.35 1.29 1.31 1.35 1.31 1.26 1.25 1.27 1.32 1.32
0.64 0.61 0.60 0.58 0.58 0.59 0.58 0.55 0.52 0.49 0.47 0.44 0.42 0.40 0.39 0.38 0.36 0.35 0.34 0.33 0.33 0.33 0.33 0.32 0.30 0.29 0.29 0.28 0.28 0.28 0.27 0.26 0.27 0.26 0.25 0.25 0.26 0.26 0.26 0.26 0.26 0.26 0.27 0.28 0.30 0.32 0.33 0.35 0.37 0.40 0.44 0.46 0.48 0.50 0.52 0.55 0.54 0.53 0.57 0.60 0.62 0.63 0.65 0.69 0.73 0.77 0.80 0.83 0.84 0.91 0.91 0.93 0.99 1.05 1.14 1.21 1.23 1.22 1.33 1.38 1.30 1.31 1.28 1.24 1.27
0.60 0.59 0.57 0.56 0.56 0.55 0.53 0.50 0.47 0.44 0.41 0.38 0.37 0.36 0.34 0.33 0.31 0.30 0.30 0.30 0.30 0.31 0.30 0.30 0.28 0.27 0.26 0.26 0.26 0.26 0.26 0.26 0.27 0.26 0.26 0.26 0.25 0.25 0.25 0.26 0.26 0.26 0.26 0.26 0.27 0.29 0.31 0.32 0.34 0.37 0.39 0.41 0.43 0.45 0.47 0.49 0.54 0.56 0.56 0.58 0.59 0.60 0.62 0.64 0.67 0.72 0.76 0.78 0.80 0.84 0.86 0.87 0.92 0.99 1.06 1.18 1.29 1.36 1.34 1.32 1.27 1.32 1.32 1.25 1.25
0.57 0.56 0.54 0.53 0.52 0.50 0.48 0.45 0.42 0.37 0.35 0.34 0.33 0.31 0.29 0.29 0.28 0.27 0.27 0.27 0.27 0.27 0.27 0.26 0.26 0.26 0.26 0.25 0.25 0.25 0.25 0.26 0.26 0.26 0.25 0.25 0.25 0.25 0.24 0.24 0.26 0.26 0.26 0.26 0.26 0.28 0.29 0.31 0.33 0.35 0.37 0.38 0.39 0.40 0.41 0.44 0.47 0.51 0.56 0.59 0.61 0.61 0.60 0.61 0.64 0.70 0.71 0.74 0.80 0.84 0.85 0.86 0.92 0.99 1.04 1.15 1.25 1.27 1.30 1.32 1.29 1.29 1.25 1.15 1.07
0.53 0.51 0.49 0.48 0.47 0.45 0.43 0.39 0.35 0.33 0.33 0.31 0.29 0.28 0.27 0.26 0.25 0.25 0.24 0.24 0.25 0.25 0.24 0.24 0.25 0.25 0.25 0.25 0.24 0.25 0.25 0.27 0.26 0.26 0.25 0.25 0.25 0.25 0.25 0.25 0.25 0.26 0.26 0.26 0.27 0.28 0.28 0.29 0.31 0.34 0.35 0.37 0.38 0.38 0.38 0.40 0.42 0.45 0.49 0.54 0.59 0.63 0.65 0.64 0.63 0.65 0.71 0.73 0.75 0.81 0.85 0.87 0.92 0.98 1.02 1.12 1.20 1.27 1.30 1.31 1.27 1.23 1.23 1.20 1.13
0.48 0.46 0.44 0.43 0.41 0.39 0.36 0.34 0.33 0.31 0.30 0.29 0.27 0.26 0.24 0.23 0.22 0.22 0.22 0.23 0.23 0.22 0.22 0.23 0.23 0.24 0.24 0.24 0.24 0.25 0.25 0.27 0.27 0.26 0.26 0.25 0.25 0.25 0.25 0.25 0.25 0.26 0.27 0.27 0.28 0.28 0.29 0.29 0.30 0.32 0.34 0.36 0.37 0.37 0.38 0.37 0.39 0.41 0.44 0.47 0.53 0.59 0.63 0.67 0.70 0.70 0.73 0.74 0.74 0.77 0.84 0.90 0.92 0.98 1.07 1.11 1.23 1.22 1.24 1.24 1.28 1.23 1.24 1.25 1.21
0.42 0.39 0.38 0.37 0.36 0.35 0.34 0.32 0.30 0.29 0.28 0.26 0.25 0.23 0.22 0.22 0.22 0.23 0.22 0.22 0.21 0.21 0.21 0.21 0.22 0.23 0.24 0.24 0.24 0.26 0.26 0.27 0.27 0.27 0.26 0.25 0.25 0.25 0.25 0.26 0.26 0.27 0.27 0.28 0.29 0.29 0.30 0.30 0.30 0.31 0.33 0.35 0.36 0.37 0.38 0.38 0.38 0.39 0.40 0.42 0.45 0.52 0.59 0.64 0.69 0.72 0.75 0.76 0.78 0.77 0.86 0.96 0.94 1.02 1.12 1.17 1.15 1.17 1.21 1.20 1.28 1.24 1.18 1.14 1.20
0.38 0.37 0.36 0.35 0.34 0.32 0.30 0.29 0.27 0.26 0.26 0.25 0.24 0.23 0.22 0.22 0.21 0.22 0.21 0.20 0.20 0.20 0.20 0.20 0.22 0.23 0.24 0.25 0.25 0.26 0.27 0.28 0.28 0.28 0.26 0.25 0.25 0.26 0.26 0.26 0.26 0.27 0.28 0.29 0.30 0.31 0.31 0.32 0.33 0.33 0.33 0.34 0.37 0.38 0.38 0.39 0.39 0.39 0.39 0.40 0.42 0.46 0.53 0.60 0.65 0.70 0.74 0.79 0.81 0.84 0.89 0.98 1.02 1.07 1.13 1.17 1.17 1.23 1.29 1.26 1.28 1.30 1.23 1.22 1.22
0.37 0.35 0.33 0.32 0.31 0.30 0.28 0.26 0.26 0.25 0.24 0.24 0.23 0.22 0.21 0.21 0.20 0.21 0.21 0.21 0.21 0.22 0.22 0.22 0.22 0.23 0.24 0.25 0.26 0.25 0.27 0.29 0.29 0.28 0.26 0.26 0.26 0.26 0.26 0.26 0.26 0.27 0.28 0.29 0.30 0.32 0.33 0.34 0.34 0.34 0.35 0.36 0.37 0.39 0.40 0.41 0.41 0.40 0.39 0.40 0.42 0.44 0.49 0.59 0.64 0.68 0.74 0.79 0.83 0.87 0.93 1.00 1.07 1.09 1.13 1.17 1.19 1.24 1.28 1.33 1.34 1.30 1.25 1.20 1.12
0.35 0.34 0.32 0.31 0.30 0.29 0.27 0.26 0.25 0.24 0.24 0.23 0.22 0.21 0.21 0.20 0.20 0.21 0.20 0.20 0.20 0.21 0.22 0.23 0.24 0.24 0.25 0.26 0.26 0.26 0.27 0.29 0.29 0.27 0.26 0.26 0.26 0.26 0.26 0.26 0.26 0.27 0.28 0.30 0.31 0.32 0.34 0.36 0.36 0.36 0.36 0.37 0.39 0.40 0.41 0.42 0.41 0.41 0.40 0.40 0.41 0.42 0.45 0.54 0.63 0.68 0.73 0.79 0.84 0.90 0.96 1.02 1.08 1.11 1.13 1.17 1.21 1.24 1.23 1.21 1.18 1.24 1.18 1.12 1.13
0.35 0.34 0.32 0.31 0.30 0.29 0.28 0.27 0.25 0.24 0.24 0.22 0.22 0.22 0.22 0.21 0.21 0.21 0.20 0.20 0.20 0.21 0.23 0.23 0.24 0.25 0.25 0.26 0.27 0.26 0.27 0.28 0.27 0.26 0.26 0.27 0.28 0.26 0.26 0.26 0.26 0.27 0.27 0.30 0.31 0.32 0.34 0.36 0.37 0.37 0.37 0.38 0.40 0.41 0.42 0.43 0.42 0.43 0.42 0.41 0.40 0.40 0.43 0.49 0.57 0.65 0.73 0.79 0.85 0.90 0.94 1.02 1.08 1.12 1.13 1.14 1.17 1.19 1.15 1.06 1.16 1.21 1.14 1.13 1.09
0.34 0.32 0.31 0.31 0.31 0.30 0.29 0.28 0.26 0.25 0.23 0.23 0.23 0.22 0.21 0.21 0.21 0.22 0.21 0.21 0.21 0.22 0.23 0.22 0.23 0.25 0.26 0.26 0.27 0.26 0.27 0.27 0.27 0.26 0.26 0.28 0.28 0.28 0.27 0.26 0.25 0.26 0.27 0.28 0.31 0.32 0.33 0.35 0.36 0.38 0.39 0.40 0.41 0.42 0.44 0.44 0.44 0.44 0.44 0.43 0.41 0.41 0.44 0.48 0.53 0.59 0.67 0.74 0.83 0.88 0.94 1.03 1.07 1.10 1.10 1.14 1.15 1.16 1.16 1.16 1.22 1.18 1.10 1.11 1.11
0.33 0.33 0.32 0.32 0.31 0.31 0.30 0.28 0.27 0.25 0.24 0.23 0.23 0.22 0.23 0.22 0.21 0.21 0.21 0.21 0.21 0.21 0.21 0.22 0.22 0.23 0.25 0.25 0.26 0.26 0.26 0.26 0.26 0.26 0.26 0.28 0.29 0.29 0.29 0.27 0.26 0.27 0.28 0.29 0.29 0.30 0.32 0.34 0.36 0.37 0.39 0.40 0.42 0.43 0.45 0.46 0.46 0.47 0.47 0.45 0.43 0.42 0.47 0.50 0.55 0.61 0.66 0.72 0.78 0.85 0.88 0.97 1.05 1.11 1.13 1.12 1.12 1.13 1.14 1.18 1.22 1.22 1.17 1.15 1.15
0.33 0.32 0.32 0.31 0.31 0.30 0.30 0.28 0.27 0.26 0.25 0.24 0.24 0.23 0.23 0.22 0.22 0.21 0.21 0.21 0.21 0.20 0.21 0.21 0.22 0.22 0.24 0.25 0.25 0.26 0.26 0.26 0.26 0.26 0.26 0.27 0.29 0.29 0.28 0.28 0.29 0.29 0.29 0.29 0.30 0.30 0.31 0.33 0.36 0.38 0.39 0.41 0.43 0.44 0.46 0.47 0.49 0.49 0.49 0.48 0.48 0.50 0.53 0.52 0.55 0.62 0.66 0.70 0.76 0.81 0.84 0.88 0.93 1.00 1.04 1.05 1.05 1.07 1.11 1.16 1.21 1.24 1.21 1.17 1.13
0.32 0.32 0.31 0.31 0.30 0.30 0.29 0.28 0.28 0.26 0.26 0.25 0.23 0.22 0.23 0.23 0.23 0.22 0.22 0.21 0.20 0.20 0.20 0.21 0.21 0.21 0.22 0.23 0.24 0.25 0.26 0.26 0.26 0.26 0.26 0.26 0.28 0.29 0.29 0.29 0.31 0.30 0.28 0.28 0.29 0.31 0.33 0.34 0.36 0.38 0.40 0.42 0.43 0.45 0.47 0.48 0.50 0.51 0.51 0.52 0.54 0.54 0.54 0.55 0.57 0.60 0.65 0.68 0.72 0.77 0.81 0.83 0.86 0.91 0.99 1.01 1.01 1.04 1.07 1.10 1.15 1.20 1.26 1.26 1.21
0.32 0.32 0.31 0.30 0.30 0.29 0.29 0.28 0.27 0.27 0.26 0.26 0.24 0.22 0.23 0.23 0.23 0.22 0.21 0.21 0.20 0.19 0.19 0.20 0.20 0.20 0.20 0.22 0.23 0.24 0.26 0.26 0.27 0.26 0.26 0.26 0.27 0.29 0.30 0.30 0.30 0.30 0.29 0.28 0.29 0.31 0.34 0.35 0.37 0.39 0.41 0.42 0.44 0.45 0.47 0.49 0.50 0.51 0.52 0.53 0.54 0.55 0.56 0.56 0.57 0.59 0.62 0.65 0.68 0.71 0.76 0.80 0.83 0.88 0.95 0.98 1.02 1.05 1.06 1.08 1.12 1.16 1.22 1.28 1.29
0.33 0.31 0.30 0.30 0.30 0.29 0.29 0.28 0.28 0.27 0.26 0.26 0.25 0.23 0.23 0.23 0.23 0.22 0.22 0.21 0.20 0.19 0.19 0.20 0.19 0.19 0.19 0.20 0.22 0.23 0.25 0.26 0.26 0.27 0.27 0.26 0.27 0.28 0.29 0.30 0.30 0.31 0.31 0.30 0.31 0.32 0.33 0.35 0.37 0.39 0.41 0.42 0.44 0.46 0.47 0.49 0.50 0.52 0.53 0.53 0.54 0.55 0.55 0.54 0.56 0.58 0.61 0.63 0.65 0.68 0.71 0.76 0.80 0.85 0.92 0.99 1.01 1.04 1.06 1.07 1.08 1.11 1.16 1.22 1.27
0.32 0.31 0.30 0.30 0.30 0.30 0.29 0.28 0.28 0.27 0.27 0.26 0.25 0.24 0.23 0.23 0.22 0.23 0.23 0.22 0.21 0.20 0.20 0.20 0.19 0.19 0.19 0.19 0.21 0.22 0.24 0.25 0.25 0.26 0.27 0.27 0.27 0.27 0.28 0.30 0.30 0.31 0.30 0.31 0.32 0.33 0.34 0.35 0.37 0.38 0.40 0.42 0.44 0.46 0.47 0.49 0.49 0.51 0.53 0.54 0.55 0.55 0.55 0.54 0.55 0.57 0.59 0.61 0.63 0.66 0.69 0.72 0.75 0.79 0.87 0.95 1.01 1.05 1.04 1.04 1.05 1.05 1.09 1.16 1.21
0.32 0.30 0.30 0.30 0.30 0.30 0.28 0.28 0.28 0.27 0.27 0.27 0.26 0.25 0.24 0.24 0.23 0.23 0.23 0.22 0.22 0.21 0.20 0.20 0.20 0.20 0.19 0.20 0.21 0.22 0.24 0.25 0.25 0.26 0.27 0.27 0.27 0.28 0.29 0.30 0.30 0.31 0.31 0.32 0.32 0.33 0.33 0.34 0.35 0.37 0.39 0.41 0.43 0.44 0.46 0.48 0.49 0.51 0.52 0.54 0.55 0.54 0.54 0.54 0.54 0.55 0.57 0.61 0.63 0.64 0.67 0.70 0.75 0.84 0.88 0.92 0.95 0.96 0.97 0.96 0.94 0.93 0.96 1.01 1.05
0.31 0.30 0.30 0.30 0.31 0.31 0.29 0.28 0.27 0.27 0.26 0.27 0.27 0.27 0.26 0.25 0.24 0.24 0.24 0.23 0.22 0.22 0.21 0.21 0.20 0.20 0.20 0.20 0.21 0.22 0.23 0.24 0.25 0.26 0.27 0.27 0.27 0.28 0.29 0.29 0.30 0.31 0.30 0.30 0.31 0.32 0.33 0.34 0.35 0.36 0.38 0.40 0.42 0.44 0.46 0.48 0.49 0.50 0.52 0.53 0.54 0.54 0.54 0.54 0.54 0.55 0.58 0.60 0.62 0.65 0.68 0.71 0.76 0.82 0.85 0.87 0.89 0.92 0.94 0.92 0.89 0.87 0.89 0.94 0.96
0.29 0.29 0.29 0.30 0.30 0.30 0.29 0.29 0.28 0.27 0.26 0.26 0.26 0.26 0.26 0.26 0.25 0.24 0.25 0.24 0.23 0.22 0.22 0.22 0.22 0.21 0.21 0.21 0.21 0.21 0.22 0.24 0.26 0.26 0.28 0.28 0.28 0.28 0.29 0.29 0.29 0.30 0.30 0.30 0.31 0.32 0.32 0.33 0.34 0.34 0.35 0.37 0.38 0.40 0.42 0.44 0.46 0.48 0.50 0.52 0.52 0.54 0.54 0.55 0.56 0.58 0.59 0.62 0.63 0.65 0.66 0.69 0.72 0.75 0.79 0.81 0.82 0.85 0.88 0.87 0.85 0.84 0.86 0.88 0.89
0.29 0.29 0.30 0.30 0.29 0.30 0.30 0.29 0.28 0.27 0.26 0.27 0.27 0.27 0.26 0.26 0.26 0.26 0.28 0.29 0.27 0.25 0.24 0.24 0.25 0.25 0.25 0.24 0.22 0.21 0.22 0.23 0.26 0.30 0.30 0.30 0.29 0.28 0.28 0.28 0.29 0.29 0.31 0.32 0.31 0.31 0.30 0.30 0.30 0.31 0.32 0.33 0.34 0.36 0.39 0.41 0.43 0.45 0.48 0.50 0.51 0.52 0.53 0.54 0.54 0.55 0.58 0.60 0.61 0.62 0.63 0.65 0.67 0.70 0.73 0.75 0.76 0.78 0.81 0.81 0.83 0.82 0.83 0.84 0.84
0.28 0.28 0.29 0.29 0.29 0.29 0.29 0.29 0.29 0.28 0.27 0.26 0.26 0.27 0.30 0.30 0.29 0.27 0.27 0.30 0.30 0.30 0.29 0.26 0.27 0.27 0.26 0.27 0.27 0.24 0.23 0.26 0.29 0.29 0.28 0.28 0.29 0.29 0.30 0.30 0.30 0.30 0.30 0.32 0.32 0.29 0.28 0.28 0.29 0.30 0.30 0.31 0.32 0.34 0.36 0.37 0.39 0.41 0.43 0.47 0.49 0.49 0.50 0.52 0.54 0.54 0.57 0.59 0.60 0.61 0.62 0.63 0.64 0.66 0.69 0.70 0.73 0.75 0.78 0.78 0.79 0.81 0.79 0.79 0.81
0.27 0.27 0.28 0.28 0.28 0.29 0.29 0.28 0.28 0.28 0.27 0.27 0.27 0.26 0.27 0.29 0.30 0.31 0.31 0.31 0.31 0.30 0.30 0.30 0.30 0.30 0.28 0.26 0.28 0.29 0.28 0.27 0.27 0.27 0.27 0.27 0.27 0.28 0.29 0.29 0.29 0.29 0.30 0.29 0.29 0.28 0.27 0.27 0.28 0.29 0.30 0.31 0.31 0.32 0.34 0.36 0.37 0.38 0.40 0.43 0.46 0.47 0.48 0.49 0.52 0.54 0.55 0.57 0.59 0.60 0.61 0.62 0.62 0.64 0.66 0.68 0.70 0.73 0.75 0.77 0.78 0.78 0.77 0.77 0.78
0.25 0.26 0.27 0.28 0.29 0.29 0.28 0.28 0.27 0.27 0.27 0.27 0.27 0.27 0.26 0.26 0.26 0.30 0.31 0.31 0.31 0.31 0.31 0.31 0.31 0.30 0.30 0.29 0.28 0.27 0.27 0.27 0.27 0.27 0.26 0.26 0.26 0.26 0.27 0.28 0.29 0.29 0.29 0.30 0.28 0.28 0.28 0.28 0.28 0.29 0.30 0.30 0.31 0.32 0.32 0.34 0.36 0.37 0.39 0.40 0.42 0.46 0.47 0.47 0.50 0.52 0.53 0.55 0.56 0.58 0.59 0.61 0.62 0.63 0.65 0.66 0.68 0.69 0.71 0.73 0.74 0.74 0.75 0.75 0.76
0.26 0.26 0.26 0.27 0.27 0.28 0.27 0.26 0.26 0.26 0.26 0.26 0.27 0.27 0.26 0.25 0.23 0.24 0.29 0.32 0.31 0.31 0.31 0.31 0.31 0.30 0.30 0.29 0.29 0.28 0.28 0.28 0.28 0.27 0.27 0.26 0.26 0.25 0.25 0.27 0.29 0.29 0.28 0.26 0.26 0.27 0.28 0.29 0.29 0.30 0.30 0.29 0.30 0.31 0.32 0.32 0.34 0.35 0.37 0.38 0.40 0.42 0.44 0.46 0.48 0.49 0.51 0.53 0.54 0.55 0.57 0.58 0.59 0.61 0.63 0.65 0.66 0.66 0.68 0.69 0.71 0.72 0.73 0.71 0.72
0.25 0.26 0.26 0.26 0.26 0.26 0.26 0.26 0.26 0.26 0.26 0.27 0.27 0.27 0.27 0.27 0.26 0.25 0.25 0.26 0.28 0.29 0.30 0.31 0.31 0.31 0.30 0.30 0.29 0.29 0.29 0.28 0.28 0.28 0.27 0.26 0.26 0.25 0.25 0.25 0.27 0.28 0.27 0.26 0.26 0.26 0.28 0.28 0.29 0.30 0.30 0.30 0.30 0.30 0.30 0.31 0.32 0.33 0.35 0.37 0.38 0.40 0.42 0.44 0.44 0.45 0.47 0.50 0.51 0.53 0.55 0.56 0.57 0.57 0.58 0.61 0.63 0.65 0.66 0.67 0.69 0.69 0.68 0.68 0.68
0.24 0.25 0.26 0.26 0.26 0.26 0.26 0.26 0.26 0.27 0.27 0.27 0.27 0.27 0.27 0.28 0.27 0.26 0.25 0.25 0.25 0.24 0.25 0.27 0.30 0.31 0.30 0.30 0.30 0.30 0.29 0.29 0.29 0.29 0.28 0.27 0.26 0.25 0.24 0.22 0.21 0.23 0.25 0.26 0.26 0.26 0.27 0.27 0.28 0.29 0.30 0.30 0.30 0.30 0.29 0.30 0.31 0.31 0.32 0.34 0.35 0.37 0.39 0.40 0.41 0.43 0.44 0.46 0.48 0.50 0.52 0.53 0.55 0.56 0.56 0.57 0.59 0.60 0.62 0.64 0.65 0.66 0.66 0.66 0.66
0.23 0.24 0.25 0.26 0.27 0.26 0.26 0.27 0.27 0.27 0.27 0.27 0.27 0.28 0.28 0.28 0.27 0.27 0.27 0.27 0.26 0.25 0.26 0.27 0.28 0.30 0.31 0.31 0.31 0.31 0.30 0.29 0.29 0.30 0.29 0.28 0.27 0.26 0.21 0.20 0.21 0.22 0.23 0.24 0.25 0.26 0.27 0.28 0.28 0.29 0.30 0.30 0.30 0.30 0.30 0.29 0.29 0.30 0.31 0.31 0.32 0.34 0.35 0.37 0.38 0.39 0.41 0.43 0.44 0.46 0.48 0.50 0.52 0.53 0.54 0.55 0.56 0.58 0.60 0.62 0.63 0.64 0.65 0.65 0.65
0.22 0.24 0.25 0.26 0.26 0.27 0.27 0.28 0.28 0.28 0.28 0.28 0.28 0.28 0.28 0.28 0.29 0.28 0.28 0.27 0.27 0.27 0.26 0.27 0.27 0.28 0.30 0.30 0.31 0.31 0.30 0.29 0.29 0.30 0.29 0.29 0.28 0.26 0.23 0.23 0.22 0.22 0.21 0.22 0.22 0.23 0.24 0.26 0.28 0.28 0.29 0.30 0.30 0.30 0.29 0.29 0.29 0.29 0.30 0.30 0.30 0.31 0.33 0.34 0.35 0.37 0.37 0.39 0.41 0.43 0.44 0.45 0.48 0.50 0.51 0.51 0.53 0.56 0.58 0.59 0.61 0.62 0.63 0.64 0.64
0.25 0.25 0.26 0.26 0.27 0.27 0.28 0.28 0.28 0.29 0.29 0.29 0.29 0.29 0.29 0.28 0.29 0.28 0.27 0.27 0.27 0.27 0.26 0.26 0.27 0.26 0.25 0.27 0.30 0.29 0.29 0.29 0.29 0.28 0.28 0.27 0.27 0.26 0.25 0.24 0.23 0.22 0.22 0.23 0.23 0.23 0.23 0.24 0.26 0.26 0.27 0.29 0.29 0.30 0.29 0.28 0.28 0.29 0.29 0.29 0.29 0.29 0.31 0.31 0.32 0.34 0.35 0.36 0.37 0.39 0.41 0.42 0.44 0.46 0.48 0.49 0.50 0.52 0.54 0.56 0.57 0.58 0.59 0.61 0.61
0.27 0.27 0.27 0.27 0.28 0.28 0.28 0.28 0.28 0.28 0.28 0.28 0.29 0.29 0.29 0.29 0.28 0.28 0.28 0.27 0.27 0.27 0.27 0.27 0.26 0.26 0.26 0.28 0.28 0.29 0.28 0.26 0.25 0.25 0.26 0.27 0.27 0.27 0.26 0.25 0.24 0.23 0.23 0.23 0.24 0.24 0.23 0.23 0.24 0.26 0.27 0.28 0.28 0.29 0.29 0.28 0.28 0.28 0.29 0.29 0.28 0.28 0.28 0.29 0.30 0.31 0.32 0.33 0.34 0.35 0.37 0.39 0.41 0.43 0.45 0.45 0.47 0.49 0.51 0.53 0.54 0.55 0.56 0.57 0.58
0.27 0.26 0.27 0.27 0.27 0.28 0.29 0.28 0.28 0.28 0.28 0.28 0.28 0.29 0.29 0.29 0.28 0.28 0.28 0.27 0.26 0.27 0.27 0.27 0.26 0.26 0.28 0.28 0.27 0.28 0.25 0.25 0.25 0.26 0.26 0.26 0.26 0.27 0.27 0.25 0.25 0.24 0.24 0.24 0.24 0.24 0.24 0.24 0.24 0.25 0.26 0.27 0.27 0.27 0.27 0.27 0.27 0.28 0.29 0.29 0.28 0.27 0.28 0.28 0.27 0.27 0.28 0.29 0.31 0.32 0.33 0.35 0.37 0.40 0.41 0.43 0.44 0.46 0.48 0.50 0.52 0.54 0.55 0.56 0.57
0.28 0.27 0.27 0.28 0.29 0.29 0.29 0.29 0.28 0.27 0.28 0.28 0.28 0.28 0.28 0.29 0.29 0.29 0.28 0.27 0.27 0.27 0.27 0.27 0.26 0.27 0.28 0.28 0.28 0.28 0.26 0.25 0.26 0.26 0.27 0.26 0.27 0.27 0.27 0.26 0.26 0.25 0.25 0.25 0.25 0.25 0.24 0.25 0.25 0.25 0.25 0.26 0.26 0.26 0.25 0.25 0.25 0.26 0.28 0.28 0.28 0.28 0.28 0.27 0.27 0.27 0.26 0.26 0.26 0.26 0.29 0.32 0.34 0.35 0.37 0.40 0.42 0.43 0.45 0.47 0.49 0.51 0.53 0.54 0.55
0.28 0.27 0.27 0.29 0.30 0.29 0.28 0.28 0.27 0.27 0.28 0.27 0.27 0.28 0.28 0.29 0.30 0.30 0.29 0.28 0.28 0.28 0.27 0.28 0.27 0.27 0.28 0.28 0.28 0.28 0.27 0.27 0.27 0.27 0.27 0.27 0.27 0.27 0.27 0.28 0.27 0.27 0.27 0.26 0.26 0.25 0.25 0.24 0.25 0.25 0.24 0.25 0.26 0.25 0.25 0.24 0.24 0.23 0.25 0.27 0.27 0.27 0.27 0.27 0.27 0.27 0.27 0.26 0.24 0.22 0.23 0.27 0.31 0.33 0.34 0.36 0.38 0.40 0.41 0.43 0.44 0.46 0.48 0.50 0.52
0.28 0.28 0.29 0.30 0.30 0.28 0.27 0.26 0.26 0.26 0.27 0.26 0.27 0.28 0.29 0.30 0.30 0.30 0.30 0.29 0.28 0.28 0.28 0.27 0.27 0.27 0.27 0.28 0.28 0.27 0.27 0.26 0.26 0.26 0.27 0.27 0.27 0.27 0.27 0.27 0.28 0.28 0.28 0.28 0.28 0.27 0.26 0.25 0.24 0.24 0.24 0.25 0.26 0.25 0.25 0.24 0.24 0.22 0.23 0.24 0.26 0.26 0.26 0.27 0.27 0.27 0.27 0.26 0.25 0.22 0.20 0.21 0.26 0.29 0.31 0.33 0.35 0.37 0.38 0.40 0.41 0.41 0.42 0.45 0.47
0.28 0.28 0.29 0.29 0.30 0.30 0.29 0.27 0.26 0.26 0.26 0.26 0.27 0.28 0.29 0.30 0.30 0.31 0.30 0.29 0.29 0.29 0.28 0.28 0.27 0.26 0.26 0.27 0.27 0.26 0.26 0.26 0.26 0.26 0.27 0.28 0.28 0.28 0.27 0.28 0.28 0.29 0.28 0.29 0.28 0.28 0.27 0.25 0.24 0.24 0.25 0.25 0.26 0.26 0.26 0.26 0.25 0.23 0.21 0.22 0.23 0.24 0.25 0.26 0.26 0.27 0.27 0.26 0.25 0.23 0.21 0.19 0.20 0.24 0.27 0.29 0.31 0.32 0.34 0.36 0.37 0.39 0.39 0.40 0.43
0.28 0.28 0.27 0.27 0.28 0.28 0.29 0.28 0.27 0.27 0.27 0.27 0.26 0.27 0.28 0.29 0.30 0.30 0.30 0.30 0.29 0.29 0.29 0.29 0.28 0.26 0.25 0.26 0.26 0.26 0.26 0.26 0.26 0.26 0.27 0.27 0.28 0.29 0.29 0.28 0.28 0.28 0.28 0.29 0.29 0.28 0.27 0.26 0.25 0.24 0.24 0.25 0.25 0.25 0.25 0.25 0.25 0.25 0.23 0.22 0.22 0.23 0.24 0.24 0.26 0.27 0.28 0.27 0.26 0.25 0.23 0.21 0.19 0.19 0.22 0.25 0.26 0.28 0.31 0.32 0.34 0.35 0.37 0.38 0.39
0.28 0.27 0.26 0.25 0.26 0.27 0.27 0.28 0.28 0.28 0.27 0.27 0.26 0.26 0.28 0.29 0.30 0.30 0.30 0.30 0.30 0.29 0.29 0.29 0.28 0.27 0.26 0.26 0.27 0.28 0.28 0.28 0.27 0.27 0.27 0.27 0.28 0.29 0.30 0.30 0.29 0.29 0.29 0.29 0.29 0.29 0.28 0.27 0.26 0.25 0.24 0.25 0.25 0.25 0.25 0.25 0.24 0.25 0.25 0.24 0.23 0.24 0.25 0.26 0.26 0.26 0.27 0.27 0.27 0.26 0.25 0.23 0.21 0.19 0.19 0.21 0.24 0.25 0.27 0.29 0.31 0.32 0.34 0.36 0.37
0.29 0.28 0.26 0.25 0.24 0.26 0.26 0.27 0.27 0.28 0.27 0.27 0.27 0.27 0.27 0.28 0.30 0.31 0.31 0.31 0.30 0.30 0.30 0.29 0.29 0.28 0.28 0.28 0.28 0.28 0.29 0.29 0.29 0.28 0.28 0.27 0.28 0.29 0.30 0.30 0.30 0.29 0.29 0.30 0.30 0.29 0.28 0.28 0.27 0.26 0.26 0.26 0.26 0.26 0.25 0.25 0.24 0.24 0.25 0.25 0.25 0.25 0.25 0.25 0.26 0.26 0.26 0.26 0.27 0.26 0.26 0.24 0.23 0.21 0.19 0.19 0.21 0.23 0.24 0.25 0.27 0.29 0.30 0.33 0.35
0.29 0.28 0.27 0.26 0.26 0.27 0.27 0.27 0.26 0.27 0.27 0.27 0.28 0.28 0.28 0.29 0.30 0.30 0.31 0.31 0.31 0.30 0.30 0.30 0.30 0.30 0.30 0.30 0.30 0.30 0.30 0.30 0.31 0.31 0.30 0.29 0.28 0.29 0.29 0.30 0.30 0.30 0.29 0.29 0.30 0.29 0.29 0.28 0.28 0.27 0.27 0.27 0.26 0.26 0.26 0.26 0.25 0.24 0.24 0.24 0.24 0.25 0.25 0.25 0.26 0.26 0.26 0.26 0.25 0.25 0.25 0.25 0.25 0.24 0.21 0.19 0.19 0.21 0.23 0.23 0.25 0.26 0.28 0.29 0.31
0.28 0.28 0.28 0.28 0.27 0.26 0.26 0.26 0.26 0.26 0.26 0.26 0.27 0.27 0.28 0.29 0.29 0.30 0.31 0.31 0.31 0.31 0.30 0.30 0.30 0.30 0.30 0.30 0.31 0.31 0.31 0.31 0.31 0.31 0.31 0.30 0.29 0.29 0.29 0.29 0.30 0.30 0.29 0.29 0.29 0.29 0.29 0.29 0.29 0.29 0.28 0.28 0.27 0.27 0.27 0.27 0.26 0.25 0.24 0.24 0.24 0.24 0.24 0.25 0.25 0.25 0.25 0.25 0.25 0.24 0.24 0.24 0.24 0.24 0.24 0.21 0.19 0.19 0.21 0.23 0.24 0.24 0.25 0.26 0.27
0.28 0.27 0.27 0.28 0.27 0.27 0.27 0.27 0.27 0.26 0.26 0.26 0.26 0.26 0.27 0.28 0.29 0.30 0.30 0.31 0.31 0.31 0.31 0.31 0.30 0.31 0.31 0.31 0.31 0.31 0.31 0.31 0.31 0.31 0.31 0.31 0.31 0.30 0.30 0.29 0.29 0.30 0.30 0.29 0.29 0.29 0.29 0.29 0.29 0.30 0.30 0.29 0.29 0.29 0.28 0.28 0.27 0.26 0.25 0.25 0.24 0.24 0.23 0.24 0.24 0.24 0.24 0.24 0.24 0.24 0.23 0.23 0.23 0.23 0.24 0.24 0.22 0.20 0.18 0.19 0.21 0.23 0.24 0.24 0.25
0.30 0.29 0.29 0.29 0.29 0.29 0.28 0.28 0.27 0.26 0.26 0.25 0.25 0.25 0.26 0.27 0.28 0.29 0.30 0.30 0.30 0.30 0.30 0.31 0.31 0.31 0.31 0.31 0.32 0.32 0.32 0.32 0.32 0.32 0.32 0.32 0.32 0.31 0.30 0.29 0.29 0.29 0.30 0.30 0.29 0.29 0.30 0.30 0.30 0.30 0.30 0.31 0.31 0.30 0.30 0.29 0.29 0.28 0.27 0.26 0.26 0.25 0.24 0.24 0.23 0.23 0.23 0.23 0.24 0.24 0.23 0.22 0.22 0.21 0.21 0.22 0.23 0.22 0.20 0.19 0.18 0.19 0.21 0.22 0.23
Wind_Speed
14 13 13 13 14 14 14 15 15 16 17 17 18 18 19 19 20 20 21 21 22 22 22 23 24 24 25 25 26 26 27 28 28 29 29 29 29 29 29 29 29 29 29 29 30 30 30 31 31 31 31 31 31 32 32 32 32 32 32 32 31 31 31 31 30 29 28 29 30 31 31 32 33 33 34 34 35 35 37 39 40 40 39 39 39
13 13 13 13 13 14 14 15 16 16 17 17 18 18 19 19 20 21 21 21 22 22 23 23 24 25 25 26 26 27 27 28 28 29 29 29 29 29 30 30 30 30 30 30 30 31 31 32 32 32 32 32 32 31 31 32 32 32 32 32 32 32 32 32 31 30 29 28 29 30 31 32 33 33 34 35 35 36 36 38 40 41 40 40 41
12 12 13 13 13 14 15 15 16 16 17 17 18 18 19 20 20 21 21 22 22 23 23 24 24 25 25 26 26 27 27 28 28 29 29 29 30 30 30 30 30 30 31 31 31 31 32 32 33 33 33 32 32 32 32 32 32 32 32 32 33 32 32 32 32 31 31 29 29 29 30 32 33 34 35 36 36 36 37 37 38 40 41 41 42
12 12 12 13 13 14 14 15 15 16 17 17 18 18 19 20 20 21 21 22 22 23 23 24 24 25 25 26 26 27 28 28 28 29 29 29 30 30 30 30 30 31 31 31 32 32 32 33 33 33 33 33 33 33 33 33 33 34 34 33 33 33 33 33 32 32 32 31 30 29 30 31 33 34 34 36 36 37 38 37 38 39 41 42 42
12 12 12 13 13 14 14 15 16 16 17 17 18 18 19 19 20 21 22 22 23 23 24 24 24 25 25 26 27 27 28 28 28 29 29 29 30 30 30 30 31 31 31 32 32 32 33 33 33 33 33 34 34 34 34 34 34 35 35 34 34 34 34 34 34 33 33 33 31 30 30 31 33 34 35 35 36 37 38 39 38 38 40 41 42
12 12 13 13 13 14 15 15 16 16 17 17 18 18 19 19 20 21 22 22 23 23 24 24 24 25 25 26 26 27 27 28 29 29 30 30 30 31 31 31 31 32 32 33 33 33 33 33 33 33 34 34 34 35 35 35 35 35 35 35 35 35 35 35 35 35 35 34 33 32 31 31 32 33 34 35 36 37 38 39 39 39 39 41 42
12 12 13 13 14 14 15 15 15 16 16 17 17 18 18 19 20 21 21 22 22 23 23 23 24 24 25 26 26 27 28 28 29 30 30 31 31 31 32 32 32 33 33 34 34 34 34 34 34 34 34 34 34 35 35 36 35 35 36 36 36 36 36 35 35 36 36 35 34 33 32 31 31 32 33 35 36 37 37 38 39 39 39 40 43
13 13 13 13 14 14 14 15 15 15 16 16 17 17 18 19 20 20 21 21 21 22 23 23 24 24 25 25 26 27 28 29 29 30 31 31 31 32 32 32 33 33 34 34 34 34 35 34 35 35 35 35 35 35 36 36 36 36 36 36 37 37 37 36 36 36 36 35 35 34 33 32 31 31 32 33 35 37 37 38 39 39 38 39 42
13 13 13 13 13 13 14 14 14 15 15 16 17 17 18 19 19 20 20 21 21 22 22 23 23 24 25 25 26 27 28 29 30 31 31 31 31 32 32 32 33 33 34 34 34 34 35 35 35 36 36 37 37 37 37 37 37 37 37 37 37 37 37 37 37 36 36 36 35 34 33 32 31 31 31 33 35 36 37 38 39 40 39 39 41
12 12 12 12 12 12 13 13 14 14 15 16 16 17 18 18 19 19 20 21 21 22 22 22 23 23 25 25 26 27 28 29 31 32 32 32 32 32 32 33 33 34 34 34 35 35 35 35 36 37 37 38 38 38 38 38 38 38 38 38 38 38 38 38 37 37 37 37 36 34 33 33 32 32 32 33 35 36 37 38 39 39 40 40 40
11 11 11 11 11 11 12 12 13 14 15 15 16 16 17 18 19 19 20 20 20 21 21 22 23 23 24 25 26 27 28 29 31 32 33 33 33 33 33 34 34 35 35 36 36 36 36 36 37 37 38 39 39 40 40 40 40 40 40 39 39 38 38 38 38 37 37 37 37 36 34 34 33 33 32 33 35 36 37 38 38 38 40 41 41
9 9 9 10 10 11 11 12 13 14 14 15 15 16 17 18 18 19 19 20 20 21 21 22 23 24 24 25 26 27 28 30 32 33 34 35 35 35 34 35 35 36 36 37 37 37 38 38 38 38 38 39 40 40 41 41 41 41 41 40 40 39 39 38 38 38 38 38 37 37 36 35 34 34 33 32 33 36 37 37 38 37 38 41 42
8 8 8 9 10 10 11 12 12 13 14 14 15 16 17 17 18 18 19 19 20 20 21 22 23 24 25 26 27 27 29 31 32 33 35 36 37 36 35 36 37 37 38 38 38 39 39 39 39 39 39 40 41 41 41 42 42 42 41 41 40 40 40 39 39 38 38 38 38 38 37 36 35 34 33 32 32 34 35 36 38 37 36 38 42
7 7 8 9 9 10 11 11 11 12 13 14 14 15 16 16 17 17 18 19 20 20 21 22 23 24 25 26 27 28 29 31 33 34 35 36 37 37 36 37 37 38 38 39 39 40 40 40 40 40 40 40 41 41 42 42 42 42 42 41 40 40 40 40 39 39 38 38 38 39 38 37 36 35 33 33 32 33 34 35 37 38 36 36 38
6 7 7 8 9 9 10 10 11 11 12 13 14 14 15 15 16 17 18 19 19 20 21 22 23 25 26 27 28 28 30 32 34 35 36 37 37 36 36 37 37 37 38 39 39 40 40 40 41 41 41 41 41 42 42 42 42 42 42 41 40 40 39 39 39 39 38 38 38 39 38 37 37 35 34 33 33 33 34 35 36 38 38 36 36
6 7 7 8 8 9 9 10 10 11 11 12 13 13 14 15 16 17 18 18 20 21 22 23 24 25 26 27 28 29 31 33 34 35 36 36 36 36 36 36 37 37 38 38 39 39 40 40 40 41 41 41 41 41 41 41 41 41 41 41 40 39 39 39 39 39 39 38 38 38 38 37 37 36 34 33 33 33 34 35 36 37 38 36 35
6 7 7 7 8 8 9 9 10 10 11 11 12 13 14 15 16 17 18 19 20 21 23 24 25 26 27 28 29 30 31 33 34 35 36 36 36 35 36 36 37 37 38 38 39 39 39 40 40 40 40 40 41 40 40 39 39 39 39 39 39 39 38 38 38 38 38 38 38 38 38 38 37 36 35 33 33 32 33 34 35 36 37 36 35
7 7 7 7 8 8 9 9 9 10 10 11 12 13 14 15 16 17 19 20 21 22 23 24 25 26 27 28 29 30 30 32 34 35 35 36 36 35 36 36 37 38 38 39 39 39 40 40 40 39 39 39 39 38 38 37 36 36 37 37 37 37 37 36 36 36 36 36 36 36 37 37 36 35 34 33 32 32 33 33 33 34 36 36 35
7 7 7 7 8 8 8 8 9 9 10 11 12 13 14 15 17 18 19 20 21 22 23 25 26 26 27 28 29 29 30 31 33 34 35 35 36 35 36 37 37 38 39 39 39 39 40 40 39 39 38 38 37 36 34 33 33 33 33 34 34 35 35 35 34 34 33 33 33 33 34 34 33 33 33 32 32 32 32 33 32 32 35 37 36
7 7 7 7 7 7 7 8 9 9 10 11 12 14 15 16 17 18 20 21 21 23 24 24 25 26 27 27 28 29 30 31 33 34 35 35 36 36 36 37 38 39 39 40 40 40 40 39 38 38 38 36 35 34 32 30 29 29 29 29 30 31 31 32 31 31 30 30 30 30 31 31 31 31 30 30 30 31 31 31 31 32 33 35 36
7 7 7 7 7 7 7 8 9 10 11 12 13 14 15 16 18 19 20 21 21 22 23 24 25 26 26 27 28 29 30 31 33 34 35 35 36 36 36 37 39 39 40 40 40 40 40 38 38 38 37 36 34 32 30 28 27 26 26 26 26 27 27 27 27 27 27 27 28 28 29 29 29 29 29 28 29 29 29 29 30 31 32 33 35
7 7 7 6 6 6 7 8 9 10 11 12 13 14 16 17 18 19 20 20 21 22 23 24 24 25 26 27 28 29 31 32 33 34 35 35 36 37 37 38 39 39 40 41 41 40 39 38 37 37 36 34 33 31 29 27 25 24 24 24 23 23 23 22 23 23 23 24 25 26 26 26 27 27 27 27 27 28 28 28 29 30 31 33 34
8 7 6 6 6 7 8 9 9 10 11 12 13 15 16 17 18 19 19 20 20 21 22 23 24 25 26 27 28 29 31 32 33 34 35 35 36 37 37 38 39 39 40 41 41 40 38 37 36 36 35 33 31 29 27 25 23 22 22 21 20 20 20 19 19 20 20 20 21 23 23 23 24 24 25 26 26 26 27 28 28 29 30 31 33
8 7 6 7 7 8 8 9 9 10 11 12 14 15 16 17 18 18 19 19 20 21 22 23 24 25 26 27 28 29 30 32 33 34 35 35 36 36 37 38 39 40 40 41 40 39 38 36 35 35 34 32 31 28 26 24 22 21 20 19 18 17 17 17 17 17 17 17 18 20 21 21 21 22 23 23 24 24 25 26 26 27 28 29 30
8 7 7 7 8 8 9 9 10 11 11 13 14 15 16 16 17 17 18 19 20 21 22 23 24 25 26 27 28 29 30 31 32 33 34 35 36 37 37 38 39 40 40 40 40 39 38 36 35 35 33 32 30 28 25 24 22 20 19 18 16 14 13 13 14 15 15 16 16 18 18 19 20 20 21 21 21 22 22 23 23 24 25 26 27
8 8 8 8 8 9 9 9 10 11 12 13 14 14 15 15 16 16 17 18 19 21 22 23 24 25 26 27 28 29 30 31 31 33 34 34 35 36 37 38 39 40 40 40 40 39 37 36 35 34 33 32 30 27 25 24 22 20 19 17 15 13 11 11 11 12 13 14 14 15 16 17 17 17 17 17 18 19 20 20 21 21 22 22 23
9 9 9 9 9 9 9 10 10 11 12 13 13 14 14 15 15 16 17 18 19 20 21 23 24 25 26 27 28 29 30 30 31 32 33 33 34 35 36 37 38 39 39 39 39 38 36 35 35 33 32 31 30 27 25 24 22 20 19 17 15 13 11 9 8 8 9 11 12 12 13 13 14 14 14 14 15 16 17 18 18 19 19 19 20
9 9 9 9 9 9 10 10 11 12 12 13 13 13 14 14 14 15 16 17 19 20 21 22 23 24 26 27 28 29 30 30 31 32 32 33 34 35 35 36 37 38 39 39 39 37 36 35 34 33 32 31 30 28 26 24 23 21 19 18 16 14 11 9 7 6 6 7 8 9 10 10 11 11 12 12 13 14 15 15 16 16 16 16 17
9 9 9 9 9 9 10 10 11 12 12 12 12 13 13 13 14 15 16 17 18 19 21 22 23 24 25 26 27 29 29 30 31 32 32 33 33 34 35 36 37 38 39 40 39 37 36 35 34 33 32 31 30 28 26 25 24 22 20 19 17 15 12 10 8 7 6 5 5 6 7 8 8 9 10 10 11 12 13 13 13 14 14 14 15
9 9 9 9 9 9 10 10 11 11 11 11 12 12 12 13 14 15 16 17 18 19 20 22 23 24 25 26 27 28 29 30 31 32 33 33 33 34 35 36 37 38 39 39 38 38 37 35 34 33 32 31 30 28 26 25 24 23 21 19 18 16 13 11 10 8 6 5 5 4 4 5 6 7 8 8 9 10 10 11 11 11 11 11 12
9 9 9 9 9 9 9 10 10 10 11 11 11 11 12 13 14 15 16 17 18 19 20 21 23 24 24 25 26 27 28 30 31 32 32 33 33 34 34 36 37 37 38 38 38 38 37 35 34 33 32 31 30 28 27 25 24 23 22 20 18 17 14 12 11 10 8 6 5 4 3 2 3 4 5 6 7 7 8 9 9 9 9 9 8
9 9 8 8 9 9 9 9 9 9 10 10 10 11 11 13 14 15 15 16 17 19 20 21 22 23 24 25 25 26 28 29 30 31 32 33 33 33 34 35 36 37 37 37 37 37 37 35 34 33 32 31 30 29 27 25 24 23 22 20 19 18 15 13 11 11 10 8 7 6 4 3 2 2 3 4 5 6 6 7 7 7 8 7 7
9 8 8 8 8 8 8 8 8 9 9 9 10 11 11 12 13 14 15 16 17 18 19 21 22 23 24 24 25 26 27 28 29 30 31 32 33 33 34 34 35 36 36 36 36 37 37 36 34 33 32 31 30 29 27 26 24 23 22 20 19 19 17 14 12 11 10 10 8 7 5 4 3 2 3 4 4 5 5 5 6 6 6 6 6
9 8 8 8 7 7 7 7 8 8 9 9 10 11 11 12 13 14 15 16 17 18 19 20 21 22 23 24 24 25 26 27 29 30 31 31 32 33 33 33 34 35 35 35 35 36 36 36 35 34 33 31 30 29 28 26 25 23 22 20 19 19 18 16 14 11 10 10 9 9 7 6 4 3 3 4 4 4 5 5 5 5 5 5 4
9 8 8 8 7 7 8 7 7 8 9 9 10 11 11 12 13 14 15 16 17 18 19 20 21 22 23 23 24 24 25 26 28 29 30 31 31 32 32 32 32 33 34 34 35 35 36 36 35 34 33 32 31 29 28 26 25 23 22 20 19 18 17 17 16 14 12 10 10 9 8 7 6 5 4 4 4 4 4 5 5 4 3 3 2
8 8 8 8 8 8 8 8 8 8 8 9 10 10 11 12 13 14 15 16 17 18 19 20 21 22 22 22 23 24 25 26 27 28 29 30 30 31 31 31 32 32 33 34 34 34 35 35 35 34 33 33 32 30 28 27 25 23 22 20 19 18 17 16 16 15 14 12 10 9 8 8 7 6 5 5 4 4 4 4 5 4 2 2 1
8 8 8 8 8 8 8 8 8 8 9 9 10 10 11 12 13 14 14 15 16 17 18 19 20 21 22 22 22 23 24 25 26 27 28 29 29 30 30 30 31 31 32 32 33 34 34 34 34 34 33 33 32 31 29 28 26 24 22 21 19 18 17 15 14 14 14 14 12 11 9 8 8 7 6 6 5 5 4 4 4 4 3 2 1
8 8 8 8 8 8 8 9 9 9 9 9 9 10 11 12 13 14 14 15 16 17 18 19 20 20 21 21 21 22 23 24 25 26 27 28 28 29 29 29 30 30 31 31 32 32 33 33 34 34 34 33 32 32 31 29 27 25 23 21 20 18 17 16 15 14 13 13 13 12 11 10 9 8 7 6 6 5 4 4 4 3 3 2 0
8 8 8 8 8 8 9 9 9 9 9 9 10 10 11 12 13 14 14 15 16 17 18 19 19 19 20 20 21 22 22 23 24 25 26 26 27 28 28 29 29 29 29 30 31 31 32 32 33 33 33 33 33 32 31 30 28 26 24 22 21 19 18 17 15 14 13 13 12 12 11 11 10 9 8 7 6 5 4 4 4 3 2 2 1
8 8 8 9 9 9 9 9 10 10 10 10 10 10 10 11 12 13 14 15 16 17 18 18 18 19 19 20 20 21 22 22 23 24 25 25 26 27 27 28 28 28 28 29 30 30 31 31 31 32 32 33 33 32 31 30 29 27 26 24 22 20 19 18 17 15 14 13 12 11 11 10 10 9 9 8 7 6 5 4 3 3 2 1 0
9 9 9 9 9 9 9 10 10 10 9 9 10 10 10 11 12 13 14 15 16 17 17 18 18 18 19 19 20 20 21 22 22 23 24 25 25 26 27 27 27 28 28 28 28 29 30 30 30 31 31 32 33 33 32 30 29 28 27 25 24 22 20 19 18 17 16 14 13 12 10 9 9 9 9 8 8 7 5 4 4 3 2 2 1
10 9 9 10 10 10 10 10 9 9 9 9 10 10 11 11 12 13 14 15 16 17 17 17 18 18 18 19 19 20 20 21 22 22 23 24 24 25 26 26 26 27 27 27 28 28 29 29 29 29 30 30 31 32 31 31 29 28 27 27 25 24 22 21 19 18 17 16 14 13 11 10 9 8 8 8 7 7 6 5 4 4 3 2 2
10 10 10 10 10 10 10 10 9 9 9 10 10 11 11 11 12 13 14 15 16 16 17 17 17 18 18 18 19 19 20 20 21 22 22 23 23 24 25 25 26 26 26 27 27 27 28 28 28 28 29 29 30 30 31 30 30 29 28 27 26 25 24 23 21 20 18 17 16 14 13 11 9 8 8 8 7 7 7 6 5 5 4 3 3
11 11 11 11 11 11 10 10 9 9 10 10 11 11 11 12 12 13 14 15 16 16 16 17 17 17 17 18 18 19 19 20 21 21 22 22 23 23 24 24 25 25 26 26 27 27 27 27 28 28 28 29 29 30 30 30 30 29 28 27 27 26 25 24 23 22 20 19 17 16 14 13 11 9 8 8 8 7 7 6 6 6 5 4 3
11 11 11 11 11 11 11 11 11 11 11 11 12 12 12 12 13 13 14 15 15 16 16 17 17 17 17 18 18 19 19 20 20 21 21 22 22 22 23 23 24 24 25 25 26 26 26 27 27 27 27 28 28 29 29 29 29 29 28 28 27 26 25 25 24 23 22 21 19 17 16 14 13 11 10 9 8 8 7 7 7 6 6 5 5
12 12 12 12 12 12 12 12 12 12 12 12 13 13 13 13 13 14 14 15 15 16 16 16 17 17 17 17 18 18 19 20 20 20 21 21 21 22 22 22 23 23 24 24 25 25 25 26 26 26 26 27 27 28 28 28 28 28 28 28 27 27 27 26 25 24 24 23 21 19 17 16 14 13 11 10 9 8 8 7 7 7 7 6 6
13 13 13 13 13 13 13 13 13 13 13 14 14 14 14 14 14 15 15 15 15 16 16 16 16 17 17 17 18 18 19 19 20 20 21 21 21 21 21 22 22 22 23 23 23 24 24 25 25 25 25 26 26 27 27 28 28 28 27 27 27 27 27 27 26 25 24 24 22 21 19 18 16 15 13 11 10 9 8 8 8 7 7 7 7
14 14 14 14 14 14 14 14 14 15 15 15 15 15 15 15 15 15 16 16 16 16 16 16 17 17 17 18 18 18 18 19 19 20 20 20 20 21 21 21 21 21 22 22 22 23 23 23 24 24 24 25 25 26 26 27 27 27 27 27 27 27 27 27 26 26 25 24 23 22 21 19 18 17 15 13 12 10 9 9 8 8 8 8 8
16 16 15 15 15 15 16 16 16 16 16 16 16 16 16 16 16 16 16 16 16 17 17 17 17 18 18 18 19 19 19 19 19 20 20 20 20 20 20 20 21 21 21 21 21 22 22 22 23 23 23 24 24 25 25 26 26 26 27 27 27 26 26 26 26 25 25 24 24 23 22 20 19 18 17 15 14 12 11 10 9 9 9 9 9
17 17 17 17 17 17 17 17 17 17 17 17 18 18 17 17 17 17 17 18 18 18 18 18 18 18 19 19 19 19 19 19 20 20 20 20 20 20 20 20 20 20 20 20 21 21 21 21 21 22 22 22 23 23 24 24 25 25 26 26 26 26 26 25 25 24 24 24 24 23 22 21 20 19 18 17 15 14 13 12 11 10 9 9 9
19 19 19 19 19 18 18 18 18 19 19 19 19 19 19 19 19 19 19 19 19 19 19 19 19 19 19 20 20 20 20 20 20 20 20 20 20 20 20 20 20 20 20 20 20 20 20 20 20 21 21 22 22 22 23 23 24 24 25 25 25 25 26 25 25 24 24 23 23 23 22 22 21 20 19 18 16 15 14 13 12 11 10 10 10
Wind_Direction
267 267 268 270 274 278 283 286 290 293 296 300 303 305 306 308 310 312 312 313 313 312 311 311 311 312 312 313 313 313 312 312 312 311 310 309 308 306 306 305 303 302 300 299 298 296 294 292 290 289 289 288 287 286 285 285 285 285 284 283 281 281 281 279 280 281 280 277 273 267 263 260 255 252 249 248 246 244 241 238 237 237 236 234 233
265 266 268 271 275 279 282 287 290 294 297 300 303 305 306 308 310 312 313 313 314 313 313 313 313 314 314 314 314 314 314 314 314 313 311 310 309 307 306 305 304 302 301 299 298 297 295 293 291 290 289 288 287 286 285 284 284 285 284 283 282 281 280 279 279 279 279 279 276 271 265 260 257 253 251 248 246 245 243 241 238 236 236 235 234
265 267 269 273 276 279 283 288 291 295 299 301 303 305 306 308 311 312 313 314 315 315 315 315 315 315 315 316 316 316 316 315 315 314 313 312 311 309 307 306 305 304 302 301 299 297 296 295 293 292 290 289 287 286 285 284 283 283 284 283 282 282 280 278 277 277 278 278 277 274 268 262 258 255 252 250 247 244 244 243 240 237 236 235 234
266 268 271 275 278 282 286 290 293 297 300 302 304 305 306 309 311 312 313 314 315 316 316 316 316 316 316 317 317 317 317 316 316 315 314 313 313 311 309 307 306 305 304 302 301 299 297 296 295 294 292 290 288 287 286 285 283 282 282 282 281 281 280 279 277 276 277 277 277 275 271 266 261 256 253 250 247 244 243 243 241 238 236 235 234
268 271 274 277 281 285 289 292 296 299 301 302 304 305 307 309 311 313 314 315 316 317 317 317 317 317 317 318 318 318 318 318 317 317 316 315 314 313 311 309 308 307 305 304 302 300 298 296 295 294 292 291 290 289 287 286 284 282 282 281 280 280 279 279 278 276 276 276 276 275 273 269 264 258 253 249 247 246 244 242 241 240 237 236 235
271 273 276 279 282 287 290 294 297 299 301 302 304 306 308 310 312 314 315 315 316 317 318 319 319 319 319 319 320 320 320 320 319 319 318 316 315 314 313 311 310 308 306 305 304 301 299 297 295 293 292 291 290 289 288 287 285 283 282 281 280 279 278 278 277 276 275 274 274 274 272 270 267 260 254 250 247 246 244 241 240 240 239 237 235
273 276 278 281 285 288 291 295 298 300 301 303 305 308 310 312 314 316 317 317 318 319 320 321 321 322 322 321 322 322 321 321 321 320 319 318 316 315 314 312 311 309 307 306 304 302 300 297 295 293 291 290 289 289 288 287 285 284 282 281 280 279 278 276 275 274 274 273 272 272 271 270 267 263 257 251 248 246 244 240 238 239 240 238 235
274 277 280 283 286 289 292 296 299 301 304 306 309 311 313 315 316 317 319 320 321 322 322 322 323 323 323 323 323 324 323 323 323 323 322 320 319 317 316 314 313 311 309 308 306 303 301 298 296 294 292 290 289 288 288 287 285 284 282 281 280 279 277 275 274 273 272 271 271 270 270 269 267 264 259 252 247 245 243 240 239 239 241 239 234
275 277 280 283 286 288 292 297 301 305 308 311 313 314 315 317 318 319 321 321 322 323 324 324 324 324 325 325 325 326 326 326 327 326 325 323 322 320 318 317 315 314 312 310 308 305 303 300 297 295 293 291 290 288 287 286 285 284 282 281 280 278 277 275 273 272 270 270 269 269 268 267 266 264 260 253 249 247 244 241 240 240 240 239 235
274 276 279 283 286 289 294 300 305 309 311 313 314 316 318 319 320 321 323 323 324 324 325 325 326 326 327 327 327 328 328 329 329 329 328 326 324 321 320 318 317 316 314 312 310 308 306 303 300 298 295 293 291 289 287 285 284 283 282 281 279 277 276 275 272 270 269 268 267 267 266 266 265 264 261 256 252 249 245 242 240 240 239 238 235
272 275 280 284 287 292 298 303 308 311 312 314 316 318 320 321 323 324 324 325 325 326 326 327 328 328 328 329 329 329 329 330 330 330 329 328 325 323 321 319 318 317 316 314 311 310 308 305 303 300 297 295 293 290 287 286 284 283 281 280 279 277 275 273 272 270 268 267 266 265 265 264 265 264 262 259 254 250 246 243 241 240 238 236 235
272 277 282 287 292 297 301 305 309 311 314 316 318 319 321 323 325 326 327 327 327 327 328 328 328 329 329 329 330 330 330 330 331 330 329 328 327 324 322 320 319 318 317 315 313 311 309 307 304 302 299 298 295 291 289 287 285 283 281 279 278 276 273 271 270 269 268 266 264 263 263 264 264 263 262 260 256 251 247 243 242 242 239 236 235
273 280 286 292 297 301 304 307 310 313 315 318 319 321 324 326 327 328 328 328 327 328 328 329 329 329 330 330 330 330 330 330 330 330 330 329 327 325 323 322 320 319 318 317 315 313 311 309 307 304 301 299 296 293 291 288 285 283 281 279 277 275 274 271 269 267 266 265 263 261 261 262 262 262 261 260 257 252 247 242 240 242 241 237 237
277 284 291 296 299 303 306 309 313 315 317 320 323 326 328 329 329 329 328 329 329 330 330 330 330 331 331 331 331 330 330 330 331 331 331 330 329 327 325 324 322 321 320 319 318 316 314 312 309 307 304 300 297 294 292 289 286 283 280 278 276 274 273 272 270 267 265 263 262 261 259 259 260 261 260 259 256 253 249 243 240 241 242 242 242
280 288 293 298 302 305 309 313 316 318 321 324 327 329 330 330 331 330 331 332 332 332 332 332 333 333 332 332 331 331 331 332 332 332 332 332 331 329 328 327 326 325 324 323 321 319 317 315 312 309 306 303 299 296 293 290 287 284 280 278 276 273 272 271 269 268 266 263 261 260 259 258 258 259 259 258 256 253 251 247 244 243 244 245 245
283 291 296 300 305 308 312 315 318 322 324 327 329 330 331 332 333 333 334 334 334 335 335 335 335 334 333 333 333 333 333 333 334 334 335 335 334 332 331 330 329 328 327 326 324 321 320 317 315 312 309 306 303 300 296 291 288 285 281 279 276 273 272 271 269 267 266 263 261 259 258 257 256 257 257 257 256 254 252 250 247 245 243 244 244
285 292 297 301 306 310 313 317 321 324 326 328 330 331 333 334 335 335 336 337 337 337 337 337 336 336 336 335 335 335 335 336 337 337 338 338 336 335 334 333 332 331 330 329 327 325 323 321 318 315 312 309 306 302 298 294 290 286 283 280 277 274 272 271 269 267 265 263 260 258 256 255 255 255 255 255 255 253 252 250 248 245 242 241 242
283 287 293 299 305 311 315 319 323 326 327 329 331 333 335 336 336 337 338 338 338 338 338 338 338 338 338 338 338 338 338 338 340 340 340 340 339 337 336 336 335 335 333 332 330 328 326 325 322 319 316 313 309 305 301 297 292 288 285 281 277 274 273 272 270 268 266 262 258 255 253 253 253 253 252 253 253 252 250 250 249 245 242 241 240
278 282 288 296 304 311 316 320 323 326 328 330 331 333 335 336 337 338 338 339 339 339 340 340 340 340 341 341 341 341 341 341 342 342 342 342 341 340 339 338 338 337 336 334 333 331 329 328 326 324 321 317 314 310 305 301 295 291 287 283 278 274 273 271 269 267 265 263 258 254 252 250 250 251 250 251 252 252 250 250 250 248 244 241 240
273 279 287 295 303 310 315 319 322 326 328 330 331 333 335 336 337 338 339 340 340 341 342 342 343 343 344 344 344 344 344 344 345 345 344 344 343 342 341 341 340 339 338 337 335 334 333 331 329 328 326 323 320 316 312 307 302 295 291 287 282 276 272 268 266 265 263 260 257 253 250 249 249 249 249 250 252 253 251 250 250 249 246 243 241
269 276 285 292 300 307 313 318 322 325 327 329 332 333 334 336 337 338 340 341 342 343 344 344 345 346 346 346 346 346 347 347 347 347 346 346 346 345 344 343 342 341 340 339 338 337 336 334 333 332 331 329 326 323 319 315 310 303 298 293 288 281 274 267 264 263 260 257 254 250 248 248 248 248 248 250 252 253 252 250 250 249 247 245 242
265 273 281 287 295 303 311 316 320 324 327 330 332 334 335 336 338 339 340 341 343 345 345 346 347 347 348 348 348 348 349 349 348 348 348 348 348 348 347 346 345 344 343 342 341 340 339 338 337 336 335 334 332 329 326 321 316 310 305 299 294 288 280 270 264 261 258 255 252 249 248 248 249 249 249 249 252 254 253 252 251 250 249 247 245
262 269 274 282 291 300 307 313 318 322 327 330 332 333 335 337 338 340 341 342 344 346 347 347 348 348 349 349 349 349 350 350 350 350 350 350 350 350 349 349 348 347 347 346 345 344 343 342 341 341 340 339 337 334 331 327 322 317 312 306 299 293 284 275 268 263 258 255 251 250 250 250 251 251 250 250 252 255 255 254 253 252 251 249 247
256 262 269 279 289 297 304 311 317 322 326 329 331 333 335 337 339 340 341 343 345 346 347 348 348 349 349 350 350 350 350 351 351 351 351 351 351 351 351 351 351 350 350 349 349 348 347 346 346 345 345 345 343 340 338 336 332 328 323 317 308 298 287 277 272 266 260 256 252 251 252 251 252 253 252 252 254 256 255 255 254 253 252 252 249
250 257 268 277 286 295 302 309 315 320 324 328 330 333 335 337 339 340 342 344 346 347 348 348 349 349 350 350 350 350 351 351 352 352 352 352 352 352 352 352 352 352 352 352 352 352 351 350 349 349 350 350 348 347 345 344 342 339 336 330 321 309 296 283 275 269 263 257 253 251 252 251 251 252 252 253 255 257 257 256 256 255 254 254 252
249 258 268 276 283 292 300 306 313 318 323 326 329 332 334 336 338 341 343 345 347 347 348 349 349 350 350 351 350 350 351 352 352 353 353 353 353 353 353 354 354 355 355 354 354 354 354 354 353 353 354 354 354 353 352 351 350 349 346 342 335 325 313 297 283 274 267 260 255 252 251 250 248 248 249 251 254 258 259 259 259 259 257 256 254
250 259 266 274 281 288 296 303 310 316 321 325 328 330 333 335 337 340 343 346 347 348 348 349 350 350 351 351 351 351 352 352 353 353 354 354 354 355 355 355 356 356 357 357 357 357 357 356 356 356 357 358 358 357 356 356 356 356 355 353 349 344 335 320 300 285 273 264 259 256 252 248 245 244 247 251 256 259 261 262 262 261 260 257 255
251 258 265 272 279 286 294 301 308 314 319 323 326 329 331 334 337 339 342 345 347 348 348 349 350 350 351 351 351 352 353 353 354 354 354 354 355 356 356 357 357 358 359 359 359 359 359 359 359 359 360 1 1 1 1 0 1 1 3 2 0 357 353 346 330 312 295 276 266 262 258 251 248 248 249 252 257 260 261 262 264 263 260 257 256
250 257 264 271 278 285 293 300 307 313 317 321 325 327 329 333 336 339 342 344 346 347 348 348 349 350 351 351 352 353 354 354 354 354 355 356 356 356 357 358 359 359 360 0 1 1 2 2 2 1 2 2 3 3 3 4 4 4 6 7 7 4 2 -0 354 343 329 311 288 277 269 259 254 256 256 255 258 261 262 263 265 264 260 257 255
249 256 262 270 278 287 294 301 307 312 316 319 323 325 327 330 333 337 341 343 344 346 347 348 349 350 351 352 353 354 354 355 355 356 357 357 357 357 358 359 360 1 1 2 3 3 4 4 4 4 4 4 5 5 5 5 5 5 6 8 10 9 8 6 5 359 349 341 328 309 290 272 264 266 267 264 263 264 264 265 266 264 261 258 255
247 254 260 268 278 288 296 301 306 311 314 318 321 324 327 330 332 335 337 339 341 344 346 347 348 349 351 352 354 355 356 356 357 358 358 358 358 358 359 360 1 2 3 4 5 5 5 6 6 6 6 6 7 7 7 7 7 7 7 10 12 14 13 12 11 10 6 1 355 347 333 302 280 277 276 276 277 276 274 272 269 266 262 259 257
246 253 261 269 278 288 295 300 305 308 312 317 321 324 327 331 334 335 336 337 340 343 345 347 348 349 351 352 354 355 356 357 358 359 360 360 359 360 0 1 2 4 4 6 7 7 7 7 8 7 8 8 9 9 10 10 10 9 9 11 13 15 15 13 13 15 16 14 10 5 3 353 326 303 300 302 301 298 294 288 281 272 264 258 259
246 253 260 268 277 286 292 298 302 306 311 317 322 325 327 331 334 336 337 339 341 342 344 347 349 350 351 353 354 355 356 358 358 359 0 1 1 1 1 2 3 5 6 7 8 9 9 9 9 9 10 10 10 10 11 11 12 12 12 13 14 16 17 17 17 18 19 20 19 15 10 2 347 332 328 329 326 321 318 313 301 290 280 269 266
247 251 257 264 273 283 289 295 301 305 311 317 321 324 327 330 333 336 338 340 341 342 344 347 348 350 351 353 354 355 356 358 359 360 1 1 1 2 2 3 4 6 8 9 10 10 10 11 11 11 11 11 11 11 11 11 12 13 13 14 15 17 19 20 21 20 20 22 25 24 20 12 0 349 344 343 341 339 340 336 322 305 295 287 280
248 250 253 260 270 280 287 294 300 304 309 315 319 323 326 330 333 334 336 338 340 341 343 346 348 349 350 352 353 354 356 357 358 360 1 2 2 3 3 4 5 7 8 10 10 11 11 12 12 12 12 12 12 11 11 11 11 12 13 13 14 16 18 19 21 21 20 22 24 25 24 19 11 1 354 351 352 352 353 354 348 329 308 301 305
245 246 251 259 269 278 286 293 298 301 305 311 316 320 324 329 331 333 335 336 338 340 342 345 347 348 349 351 352 354 355 356 358 359 1 2 2 4 5 5 6 7 8 10 11 12 12 13 13 13 13 13 13 12 11 11 11 11 12 13 14 15 16 18 19 20 20 20 20 20 21 18 11 2 354 350 351 350 350 355 359 355 338 323 342
241 245 252 259 268 278 286 291 295 297 301 307 312 317 321 326 329 332 334 336 337 339 342 344 346 348 350 351 353 354 355 356 357 359 1 2 3 4 5 5 6 7 8 9 11 12 13 13 13 13 13 13 13 13 13 12 11 12 12 13 14 15 15 16 17 18 19 19 17 14 13 12 9 4 359 354 350 347 344 347 355 0 1 7 95
244 248 253 259 268 277 284 288 291 294 298 303 308 313 318 322 327 330 333 335 337 339 341 343 345 347 349 351 353 354 355 356 357 358 0 2 3 3 4 5 6 7 8 9 10 11 12 13 14 14 14 14 14 14 14 14 13 13 13 14 14 15 15 16 16 16 15 16 16 15 13 11 8 6 4 2 358 353 345 340 341 348 354 358 19
247 251 253 259 268 277 282 286 288 291 294 298 303 309 314 319 325 329 332 335 337 338 340 342 344 346 348 350 352 353 354 355 357 358 359 1 2 3 4 5 6 7 8 8 9 10 11 12 13 14 15 14 14 14 15 15 16 15 15 15 15 15 14 14 14 12 11 10 11 12 12 12 10 7 6 6 4 1 357 351 345 340 337 339 332
248 252 254 259 268 275 281 285 287 288 291 294 299 305 311 316 322 327 331 334 336 338 339 341 342 344 347 349 351 352 353 354 355 357 358 359 1 2 3 4 5 6 7 8 8 9 10 11 12 13 14 15 15 15 16 16 17 17 17 16 16 15 15 13 12 10 9 8 6 6 7 8 9 8 8 8 7 4 2 1 358 352 343 336 333
250 254 256 261 267 274 279 283 285 287 289 292 296 302 308 313 319 325 329 332 334 336 338 340 341 343 346 347 349 351 352 353 354 355 357 358 359 1 2 3 4 5 6 7 7 8 8 9 10 12 13 14 15 16 16 17 17 18 18 18 17 16 16 14 13 11 9 7 5 3 1 1 2 4 5 6 7 7 4 1 359 354 345 330 310
250 254 258 263 268 273 278 281 282 285 288 291 295 301 306 311 316 321 326 329 332 334 337 339 340 342 344 346 347 349 351 352 353 354 355 357 358 359 0 2 3 4 5 6 6 7 7 8 9 10 12 14 15 16 17 18 18 18 18 19 19 18 17 15 14 12 10 8 6 4 2 357 355 356 357 357 358 1 2 0 358 354 345 331 316
250 256 260 264 268 272 276 278 280 282 286 291 296 300 304 308 313 318 322 326 329 332 334 337 338 340 342 344 346 348 350 351 352 353 354 355 357 358 359 0 1 2 3 4 5 6 6 7 8 9 11 13 14 15 16 17 18 18 18 18 19 18 18 17 16 14 11 9 7 6 4 359 353 350 350 349 348 348 349 350 351 350 345 334 322
252 258 261 264 267 270 273 274 277 280 284 289 294 298 302 305 309 314 319 323 326 329 331 334 336 338 340 342 345 346 347 349 350 351 352 353 354 356 357 358 359 0 1 3 4 5 6 7 8 8 10 11 13 14 15 16 17 18 19 19 18 18 18 18 18 16 14 11 8 7 5 3 357 350 345 343 341 340 338 336 336 338 337 330 320
254 259 262 264 265 267 269 271 275 279 283 287 291 295 299 302 305 310 315 319 322 325 328 331 333 335 337 339 342 343 345 346 347 348 349 350 351 353 355 356 357 358 359 1 2 4 5 6 7 8 9 11 12 13 14 15 16 17 18 19 19 18 18 17 17 17 16 14 12 9 7 5 2 356 348 341 337 335 334 330 327 325 323 319 312
256 260 263 265 265 266 267 270 274 278 282 285 288 292 296 298 302 306 311 315 318 321 324 327 329 331 333 336 338 340 342 343 345 345 346 348 349 350 352 353 354 356 357 358 360 2 3 5 7 8 9 10 11 12 13 14 15 15 16 17 18 18 18 17 16 16 16 16 15 13 11 8 5 1 355 347 337 332 330 328 325 321 316 311 304
257 261 264 265 266 266 267 269 273 277 281 284 286 289 292 295 298 302 306 309 313 316 320 323 325 327 329 331 333 335 338 340 341 342 344 345 346 347 348 349 351 353 354 355 357 359 1 3 5 6 7 9 10 11 12 13 14 14 14 15 16 16 17 17 17 17 16 16 15 15 14 12 10 7 2 356 347 337 331 326 322 318 314 309 303
256 260 263 266 267 267 267 269 273 276 279 282 285 287 290 292 295 298 301 305 308 311 314 317 320 323 325 327 329 331 333 335 337 339 340 341 343 344 344 346 348 349 351 352 354 356 358 0 2 3 5 6 8 9 10 11 12 13 13 13 14 14 15 16 16 17 16 16 15 15 14 14 13 11 8 4 358 349 339 330 323 317 312 307 303
257 259 262 265 268 269 269 271 273 276 278 281 283 286 288 290 292 295 298 300 303 306 308 311 314 317 320 322 324 326 328 331 333 335 336 338 339 340 341 342 344 345 347 349 350 352 354 357 358 0 2 3 4 6 7 8 9 10 11 12 12 12 12 13 14 15 15 15 15 14 13 12 12 11 10 8 4 359 350 340 331 322 314 308 302
260 261 262 264 267 270 272 272 274 276 278 280 282 284 286 287 290 292 295 297 299 301 304 306 309 311 314 316 319 321 323 326 328 330 332 334 335 336 337 338 340 341 343 345 346 347 349 352 354 356 358 359 0 2 3 4 6 7 8 9 10 11 11 11 11 12 13 13 13 13 12 11 10 9 8 7 5 2 358 351 342 332 322 314 306
263 264 265 265 267 270 272 272 273 275 277 278 280 282 284 285 287 290 292 294 296 298 300 302 304 306 309 311 313 315 317 320 323 325 327 329 331 332 333 334 335 337 338 340 341 342 344 346 348 350 352 354 356 357 359 1 2 3 4 5 6 7 8 9 9 10 10 10 10 11 11 11 10 8 7 5 3 1 358 355 349 342 334 325 316